Regional Weather Roundup
Issued by NWS

Home | Current Version | Previous Version | Graphics & Text | Print | Product List | Glossary On
Versions: 1 2 3 4 5 6 7 8 9 10 11 12 13 14 15 16 17 18 19 20 21 22 23 24 25 26 27
000
ASUS45 KPSR 220510
RWRAZ

ARIZONA HOURLY REGIONAL WEATHER ROUNDUP
NATIONAL WEATHER SERVICE PHOENIX AZ
1000 PM MST THU SEP 21 2017

NOTE: FAIR INDICATES FEW OR NO CLOUDS BELOW 12,000 FEET WITH NO
SIGNIFICANT WEATHER AND/OR OBSTRUCTIONS TO VISIBILITY.

AZZ001>003-036-220600-
NORTHWEST ARIZONA

CITY           SKY/WX    TMP DP  RH WIND       PRES   REMARKS
BULLHEAD CITY  CLEAR     79  41  25 CALM      29.64R
KINGMAN        PTCLDY    68  42  38 SW20G26   29.76R
$$

AZZ004>008-015-016-018-220600-
NORTH CENTRAL ARIZONA

CITY           SKY/WX    TMP DP  RH WIND       PRES   REMARKS
GRAND CANYON   PTCLDY    57  37  47 S10       29.89F
WILLIAMS       PTCLDY    57  36  44 SW15G25   29.92S
PRESCOTT       CLEAR     63  38  39 S6        29.88S
FLAGSTAFF      CLEAR     56  36  47 SW12      29.95S
PAYSON           N/A     66  28  24 SW12      29.92S
PAGE           CLEAR     73  36  25 S16G24    29.71R
$$

AZZ009>014-017-220600-
NORTHEAST ARIZONA

CITY           SKY/WX    TMP DP  RH WIND       PRES   REMARKS
WINSLOW        CLEAR     66  37  34 SW9       29.86R
SAINT JOHNS    CLEAR     67  39  35 SW13      29.92S
WINDOW ROCK    CLEAR     58  32  37 S3        29.98S
SHOW LOW       CLEAR     64  36  34 S16G24    29.97F
$$

AZZ540-542>544-546-548-220600-
GREATER PHOENIX AREA

CITY           SKY/WX    TMP DP  RH WIND       PRES   REMARKS
PHOENIX        PTCLDY    86  29  12 W13       29.66S
BUCKEYE        PTCLDY    79  39  24 S13       29.69S
LUKE AFB       CLEAR     81  38  21 SW13      29.67R
DEER VALLEY    CLEAR     82  30  15 SW12      29.69S
SCOTTSDALE     CLEAR     83  29  14 W9        29.70S
MESA-GATEWAY   CLEAR     81  32  17 SW3       29.71R
$$

AZZ539-553-220600-
SOUTHWEST MARICOPA COUNTY AND PINAL COUNTY

CITY           SKY/WX    TMP DP  RH WIND       PRES   REMARKS
CASA GRANDE    NOT AVBL
GILA BEND      CLEAR     80  37  21 SW12      29.68R
$$

AZZ503-504-507>509-220600-
SOUTHEAST ARIZONA

CITY           SKY/WX    TMP DP  RH WIND       PRES   REMARKS
TUCSON         CLEAR     81  52  36 CALM      29.82R
DAVIS-MONTHAN  CLEAR     78  47  33 SW7       29.80R
NOGALES        CLEAR     71  43  36 CALM      29.91S
SIERRA VISTA   CLEAR     72  40  31 S6        29.97S
DOUGLAS        CLEAR     71  43  36 CALM      29.93S
SAFFORD        CLEAR     80  39  23 S6        29.79S
$$

AZZ532-220600-
SOUTHWEST ARIZONA

CITY           SKY/WX    TMP DP  RH WIND       PRES   REMARKS
YUMA           PTCLDY    73  51  46 NW17G23   29.70S
$$

CAZ041-043-047-048-061-525>527-560>570-220600-
SOUTHERN CALIFORNIA

CITY           SKY/WX    TMP DP  RH WIND       PRES   REMARKS
DOWNTOWN L.A.  CLEAR     66  54  65 VRB3      29.83R
L.A. AIRPORT   PTCLDY    64  55  72 E8        29.82S
SAN DIEGO      MOCLDY    66  52  60 SW6       29.89S
BURBANK        CLEAR     63  52  67 SE5       29.84R
ONTARIO        PTCLDY    59  47  64 W9        29.85R
RIVERSIDE      PTCLDY    61  48  62 CALM      29.85R
PALM SPRINGS   CLEAR     75  42  30 NW17G28   29.72R
EL CENTRO NAS  CLEAR     71  45  39 W33G41    29.73F
IMPERIAL       CLEAR     71  49  45 W26G36    29.69F
BLYTHE         CLEAR     75  55  49 W14       29.67R
NEEDLES        CLEAR     79  42  26 NW16      29.66R
$$

NVZ020-UTZ003-220600-
SOUTHERN NEVADA-UTAH

CITY           SKY/WX    TMP DP  RH WIND       PRES   REMARKS
LAS VEGAS      PTCLDY    68  19  15 SW23G32   29.68R
SALT LAKE CITY RAIN      42  39  89 SE8       29.86S
$$

NMZ009-TXZ055-220600-
NEW MEXICO-WEST TEXAS

CITY           SKY/WX    TMP DP  RH WIND       PRES   REMARKS
ALBUQUERQUE    PTCLDY    70  36  28 SE13      29.94R
EL PASO        PTCLDY    82  45  27 S5        29.90R
$$


........................KEY........................
SKY/WX - SKY CONDITION/WEATHER
TMP    - TEMPERATURE IN FAHRENHEIT
DP     - DEW POINT IN FAHRENHEIT
RH     - RELATIVE HUMIDITY IN PERCENT
WIND   - DIRECTION AND SPEED IN MILES PER HOUR (MPH)
VRB    - VARIABLE WIND DIRECTION
PRES   - MEAN SEA LEVEL PRESSURE IN INCHES OF MERCURY
         F - FALLING PRESSURE   R - RISING PRESSURE
         S - STEADY PRESSURE
VSB    - VISIBILITY IN MILES
HX     - HEAT INDEX IN FAHRENHEIT
WCI    - WIND CHILL INDEX IN FAHRENHEIT
TC     - TEMPERATURE IN CELSIUS WHICH IS ALSO KNOWN AS
         TEMPERATURE IN CENTIGRADE
AFB    - AIR FORCE BASE
         LUKE AFB IS LUKE AIR FORCE BASE
         DAVIS-MONTHAN IS DAVIS-MONTHAN AIR FORCE BASE
NAS    - NAVAL AIR STATION
         EL CENTRO NAS IS EL CENTRO NAVAL AIR STATION
N/A    - NOT AVAILABLE





USA.gov is the U.S. government's official web portal to all federal, state and local government web resources and services.